Cross City, FL

3:26 AM EST on December 08, 2019 (GMT -0500)
Cross City

Weather History for KCTY - October, 2019

Change the Weather History Date:

Thursday, October 10, 2019

  Actual Average Record
Temperature  
Mean Temperature 76 °F 72 °F  
Max Temperature 87 °F 84 °F 93 °F (2017)
Min Temperature 65 °F 61 °F 46 °F (2000)
Degree Days  
Heating Degree Days 0    
Month to date heating degree days 0  
Since 1 July heating degree days 0  
Cooling Degree Days 11    
Month to date cooling degree days 134  
Year to date cooling degree days 2891  
Growing Degree Days 26 (Base 50)    
Moisture  
Dew Point 66 °F    
Average Humidity 76    
Maximum Humidity 98    
Minimum Humidity 46    
Precipitation  
Precipitation 0.00 in 0.13 in 0.89 in (2011)
Month to date precipitation 0.31 1.45  
Year to date precipitation 47.78 41.28  
Sea Level Pressure  
Sea Level Pressure 30.04 in    
Wind  
Wind Speed 8 mph (NE)    
Max Wind Speed 13 mph    
Max Gust Speed 21 mph    
Visibility 10 miles    
Events      
T = Trace of Precipitation, MM = Missing Value Source: NWS Daily Summary

Daily Weather History Graph

Daily Weather History Graph

Search for Another Location

Airport or City:

Astronomy

Oct. 10, 2019 Rise Set
Actual Time 7:30 AM EDT 7:07 PM EDT
Civil Twilight 7:06 AM EDT 7:31 PM EDT
Nautical Twilight 6:39 AM EDT 7:59 PM EDT
Astronomical Twilight 6:11 AM EDT 8:26 PM EDT
Moon 5:50 PM EDT (10/10) 4:34 AM EDT (10/10)
Length of Visible Light 12h 24m
Length of Day
11h 36m
Waxing Gibbous, 91% of the Moon is Illuminated
Oct 10
Waxing Gibbous
Oct 13
Full
Oct 21
Last Quarter
Oct 27
New
Nov 4
First Quarter

Hourly Weather History & Observations

Time (EDT) Temp. Heat Index Dew Point Humidity Pressure Visibility Wind Dir Wind Speed Gust Speed Precip Events Conditions
12:15 AM 68.5 °F - 65.3 °F 89% 30.06 in 10.0 mi NE 6.9 mph - N/A   Clear
12:35 AM 68.2 °F - 65.1 °F 90% 30.05 in 10.0 mi NE 4.6 mph - N/A   Clear
12:55 AM 67.8 °F - 65.1 °F 91% 30.06 in 10.0 mi NE 5.8 mph - N/A   Clear
1:15 AM 67.3 °F - 64.9 °F 92% 30.05 in 10.0 mi NE 4.6 mph - N/A   Clear
1:35 AM 67.1 °F - 64.8 °F 92% 30.05 in 10.0 mi NE 5.8 mph - N/A   Clear
1:55 AM 66.2 °F - 64.4 °F 94% 30.05 in 10.0 mi NE 5.8 mph - N/A   Clear
2:15 AM 66.6 °F - 64.4 °F 93% 30.05 in 10.0 mi NE 5.8 mph - N/A   Clear
2:35 AM 66.4 °F - 64.4 °F 93% 30.04 in 10.0 mi NE 3.5 mph - N/A   Clear
2:55 AM 65.8 °F - 64.0 °F 94% 30.04 in 10.0 mi NNE 4.6 mph - N/A   Clear
3:15 AM 65.1 °F - 63.7 °F 95% 30.03 in 10.0 mi NNE 4.6 mph - N/A   Clear
3:35 AM 65.1 °F - 64.0 °F 96% 30.03 in 10.0 mi NNE 5.8 mph - N/A   Clear
3:55 AM 65.1 °F - 63.9 °F 96% 30.02 in 10.0 mi NE 4.6 mph - N/A   Clear
4:15 AM 65.1 °F - 63.9 °F 96% 30.02 in 10.0 mi NNE 5.8 mph - N/A   Clear
4:35 AM 65.1 °F - 63.7 °F 95% 30.02 in 10.0 mi NNE 5.8 mph - N/A   Clear
4:55 AM 65.1 °F - 63.7 °F 95% 30.02 in 10.0 mi NNE 5.8 mph - N/A   Clear
5:15 AM 64.9 °F - 63.5 °F 95% 30.02 in 10.0 mi NNE 5.8 mph - N/A   Unknown
5:35 AM 64.9 °F - 63.7 °F 96% 30.03 in 10.0 mi NNE 3.5 mph - N/A   Unknown
5:55 AM 65.1 °F - 63.9 °F 96% 30.03 in 10.0 mi NE 5.8 mph - N/A   Unknown
6:15 AM 64.9 °F - 63.9 °F 96% 30.04 in 10.0 mi NE 4.6 mph - N/A   Unknown
6:35 AM 64.8 °F - 63.9 °F 97% 30.04 in 10.0 mi NNE 5.8 mph - N/A   Unknown
6:55 AM 64.8 °F - 63.9 °F 97% 30.05 in 10.0 mi NNE 5.8 mph - N/A   Unknown
7:15 AM 64.8 °F - 64.0 °F 98% 30.05 in 10.0 mi NE 4.6 mph - N/A   Unknown
7:35 AM 64.9 °F - 64.0 °F 97% 30.05 in 10.0 mi NNE 4.6 mph - N/A   Unknown
7:55 AM 65.3 °F - 64.4 °F 97% 30.05 in 10.0 mi NE 5.8 mph - N/A   Unknown
8:15 AM 66.4 °F - 64.8 °F 95% 30.06 in 10.0 mi NE 5.8 mph - N/A   Clear
8:35 AM 67.6 °F - 65.3 °F 92% 30.06 in 10.0 mi NE 6.9 mph - N/A   Unknown
8:55 AM 69.4 °F - 66.2 °F 89% 30.06 in 10.0 mi NE 8.1 mph - N/A   Unknown
9:15 AM 70.9 °F - 66.7 °F 87% 30.07 in 10.0 mi NE 8.1 mph - N/A   Unknown
9:35 AM 72.9 °F - 67.8 °F 84% 30.07 in 10.0 mi NE 10.4 mph - N/A   Unknown
9:55 AM 74.5 °F - 68.5 °F 82% 30.08 in 10.0 mi NE 9.2 mph - N/A   Unknown
10:15 AM 76.1 °F - 68.7 °F 78% 30.08 in 10.0 mi NE 9.2 mph 17.3 mph N/A   Unknown
10:35 AM 77.7 °F - 69.4 °F 76% 30.08 in 10.0 mi NE 9.2 mph 18.4 mph N/A   Unknown
10:55 AM 78.8 °F - 69.8 °F 74% 30.08 in 10.0 mi NE 11.5 mph 17.3 mph N/A   Unknown
11:15 AM 80.8 °F 84.1 °F 69.8 °F 69% 30.08 in 10.0 mi ENE 6.9 mph - N/A   Unknown
11:35 AM 81.0 °F 84.1 °F 69.1 °F 67% 30.07 in 10.0 mi NE 11.5 mph - N/A   Unknown
11:55 AM 81.1 °F 84.4 °F 69.3 °F 67% 30.07 in 10.0 mi NE 10.4 mph 17.3 mph N/A   Unknown
12:15 PM 83.3 °F 87.1 °F 69.6 °F 63% 30.07 in 10.0 mi NE 12.7 mph - N/A   Unknown
12:35 PM 84.4 °F 88.5 °F 69.6 °F 61% 30.06 in 10.0 mi NNE 12.7 mph - N/A   Unknown
12:55 PM 81.9 °F 84.8 °F 68.2 °F 63% 30.06 in 10.0 mi NE 12.7 mph 16.1 mph N/A   Unknown
1:15 PM 82.4 °F 85.4 °F 68.0 °F 62% 30.05 in 10.0 mi ENE 9.2 mph - N/A   Unknown
1:35 PM 84.7 °F 87.6 °F 67.6 °F 56% 30.04 in 10.0 mi NE 15.0 mph - N/A   Unknown
1:55 PM 84.0 °F 86.3 °F 66.4 °F 55% 30.03 in 10.0 mi NE 10.4 mph - N/A   Unknown
2:15 PM 86.2 °F 89.1 °F 67.1 °F 53% 30.02 in 10.0 mi NE 13.8 mph - N/A   Unknown
2:35 PM 85.5 °F 88.2 °F 66.9 °F 54% 30.01 in 10.0 mi ENE 11.5 mph 17.3 mph N/A   Unknown
2:55 PM 86.0 °F 88.2 °F 66.2 °F 51% 30.00 in 10.0 mi NE 12.7 mph 19.6 mph N/A   Unknown
3:15 PM 85.8 °F 88.2 °F 66.2 °F 52% 30.00 in 10.0 mi NE 15.0 mph - N/A   Unknown
3:35 PM 87.1 °F 89.5 °F 66.4 °F 50% 29.99 in 10.0 mi NE 11.5 mph 16.1 mph N/A   Unknown
3:55 PM 86.7 °F 88.4 °F 64.8 °F 48% 29.99 in 10.0 mi NE 10.4 mph - N/A   Unknown
4:15 PM 86.7 °F 88.4 °F 64.8 °F 48% 29.99 in 10.0 mi NE 13.8 mph 20.7 mph N/A   Unknown
4:35 PM 86.7 °F 88.4 °F 64.8 °F 48% 29.98 in 10.0 mi NE 10.4 mph - N/A   Unknown
4:55 PM 86.0 °F 87.9 °F 65.1 °F 50% 29.98 in 10.0 mi NE 9.2 mph - N/A   Unknown
5:15 PM 84.0 °F 85.8 °F 65.3 °F 53% 29.99 in 10.0 mi NE 10.4 mph - N/A   Unknown
5:35 PM 84.9 °F 87.1 °F 65.8 °F 53% 29.99 in 10.0 mi ENE 8.1 mph - N/A   Unknown
5:55 PM 82.4 °F 84.6 °F 66.2 °F 58% 29.99 in 10.0 mi NE 10.4 mph 16.1 mph N/A   Unknown
6:15 PM 81.9 °F 83.7 °F 65.1 °F 57% 30.00 in 10.0 mi ENE 9.2 mph - N/A   Unknown
6:35 PM 80.6 °F 82.5 °F 65.7 °F 60% 30.00 in 10.0 mi NE 8.1 mph - N/A   Clear
6:55 PM 79.7 °F - 65.8 °F 62% 30.00 in 10.0 mi NE 8.1 mph - N/A   Unknown
7:15 PM 78.4 °F - 65.5 °F 64% 30.01 in 10.0 mi NE 6.9 mph - N/A   Unknown
7:35 PM 77.9 °F - 65.5 °F 65% 30.01 in 10.0 mi NE 8.1 mph - N/A   Unknown
7:55 PM 77.4 °F - 65.3 °F 66% 30.01 in 10.0 mi NE 6.9 mph - N/A   Unknown
8:15 PM 76.5 °F - 65.3 °F 68% 30.01 in 10.0 mi NE 6.9 mph - N/A   Unknown
8:35 PM 76.1 °F - 65.5 °F 70% 30.02 in 10.0 mi ENE 8.1 mph - N/A   Unknown
8:55 PM 75.6 °F - 65.7 °F 71% 30.03 in 10.0 mi NE 8.1 mph - N/A   Unknown
9:15 PM 74.8 °F - 65.7 °F 73% 30.04 in 10.0 mi ENE 6.9 mph - N/A   Unknown
9:35 PM 73.8 °F - 65.7 °F 76% 30.04 in 10.0 mi NE 6.9 mph - N/A   Clear
9:55 PM 73.4 °F - 65.8 °F 77% 30.04 in 10.0 mi NE 10.4 mph - N/A   Clear
10:15 PM 72.5 °F - 66.0 °F 80% 30.05 in 10.0 mi ENE 6.9 mph - N/A   Clear
10:35 PM 72.1 °F - 66.0 °F 81% 30.06 in 10.0 mi ENE 6.9 mph - N/A   Unknown
10:55 PM 71.6 °F - 66.0 °F 82% 30.06 in 10.0 mi NE 6.9 mph - N/A   Unknown
11:15 PM 70.9 °F - 65.8 °F 84% 30.06 in 10.0 mi NE 5.8 mph - N/A   Unknown
11:35 PM 70.3 °F - 65.8 °F 86% 30.06 in 10.0 mi NE 5.8 mph - N/A   Unknown
11:55 PM 69.8 °F - 65.8 °F 87% 30.06 in 10.0 mi NE 5.8 mph - N/A   Clear